Simultaneous Nadir Overpasses (SNOs) Predictions

Prediction of SNOs between FY3D and NOAA-19 Satellite Orbit:

Table of predicted SNOs for the next 14.0 days since TLE Epoch: 9/28/2019
Index Date (FY3D) Time (FY3D) Lat,Lon (FY3D) SZA (FY3D ) Date (NOAA-19) Time (NOAA-19) Lat,Lon (NOAA-19) SZA (NOAA-19 ) Distance(km) Time Diff (sec)
1 09/29/2019 01:48:21 79.91, 116.11 83.88 09/29/2019 01:47:14 79.92, 116.22 83.91 2.35 67
2 09/29/2019 02:39:05 -79.91, -76.56 96.11 09/29/2019 02:38:15 -79.92, -76.53 96.08 1.26 50
3 09/29/2019 03:29:50 79.91, 90.78 83.90 09/29/2019 03:29:15 79.92, 90.64 83.94 2.81 35
4 09/29/2019 04:20:35 -79.94,-102.19 96.04 09/29/2019 04:20:16 -79.92,-102.11 96.06 2.85 19
5 09/29/2019 05:11:20 79.94, 65.15 83.98 09/29/2019 05:11:16 79.91, 65.06 83.97 3.40 4
6 09/29/2019 06:02:04 -79.93,-127.52 96.02 09/29/2019 06:02:16 -79.94,-127.37 96.04 2.79 12
7 09/29/2019 06:52:49 79.93, 39.82 84.00 09/29/2019 06:53:16 79.93, 39.79 83.99 0.78 27
8 09/29/2019 07:43:33 -79.93,-152.85 96.00 09/29/2019 07:44:17 -79.93,-152.95 96.01 1.95 44
9 09/29/2019 08:34:18 79.93, 14.49 84.01 09/29/2019 08:35:16 79.95, 14.52 84.00 2.14 58




NCC Satellite Simultaneous Nadir Overpasses (SNOs) Prediction Service
